Date,TemperatureHighF,TemperatureAvgF,TemperatureLowF,DewpointHighF,DewpointAvgF,DewpointLowF,HumidityHigh,HumidityAvg,HumidityLow,PressureMaxIn,PressureMinIn,WindSpeedMaxMPH,WindSpeedAvgMPH,GustSpeedMaxMPH,PrecipitationSumIn
2013-1-1,32.4,13.1,1.2,28.9,6.8,-2.1,94,76,64,30.07,29.79,16,4,28,0.00
2013-1-2,18.8,4.8,-15.2,14.3,-1.3,-19.0,84,76,61,30.38,29.96,14,3,18,0.00
2013-1-3,24.3,-4.0,-16.7,22.4,-8.3,-20.6,95,81,69,30.36,29.97,8,0,8,0.00
2013-1-4,32.9,31.5,24.2,27.8,25.4,21.4,89,78,73,29.95,29.82,23,10,29,0.00
2013-1-5,27.9,22.1,14.8,18.8,14.4,10.8,87,73,60,30.35,30.16,11,2,15,0.03
2013-1-6,33.5,30.2,21.1,32.2,27.9,19.0,97,91,72,30.16,29.91,11,4,17,0.15
2013-1-7,25.7,16.6,9.0,21.4,13.5,6.1,92,88,83,30.49,30.14,13,2,14,0.21
2013-1-8,35.5,33.8,28.3,30.9,28.1,22.0,86,79,72,30.41,30.20,12,4,18,0.13
2013-1-9,42.5,36.4,23.1,33.9,28.8,20.5,90,74,62,30.39,29.92,19,6,30,0.26
2013-1-10,38.9,32.4,21.1,29.6,24.8,19.0,93,74,59,30.64,30.19,13,4,23,0.01
2013-1-11,40.2,31.4,18.4,38.6,28.0,17.2,96,87,65,30.59,30.04,11,2,16,0.05
2013-1-12,53.1,46.4,40.4,44.4,41.5,38.1,94,83,70,30.09,30.01,12,4,15,0.00
2013-1-13,57.6,50.6,42.1,51.1,46.9,40.8,96,87,76,30.10,29.82,13,4,21,0.32
2013-1-14,54.3,40.2,31.9,49.9,33.7,25.0,95,78,60,30.39,29.76,22,7,25,0.02
2013-1-15,32.5,29.5,23.2,26.6,21.3,17.4,88,72,57,30.44,30.29,12,2,14,0.00
2013-1-16,35.1,30.9,26.5,29.3,26.0,22.1,90,82,76,30.29,29.80,12,3,19,0.00
2013-1-17,35.3,14.5,-1.6,31.2,6.0,-9.1,96,70,40,30.32,29.82,16,4,26,0.00
2013-1-18,24.2,10.7,-4.2,15.6,2.5,-7.2,88,71,48,30.46,30.15,14,4,20,0.00
2013-1-19,48.3,35.7,24.3,34.3,25.5,12.3,91,67,45,30.15,29.64,17,8,29,0.00
2013-1-20,48.2,31.1,11.0,35.8,18.3,2.3,94,60,45,30.11,29.36,37,12,41,0.02
2013-1-21,10.9,6.2,1.7,3.4,0.4,-4.2,85,77,70,30.15,29.94,8,2,16,0.00
2013-1-22,8.5,4.7,-3.8,4.7,-2.2,-10.9,90,73,55,30.25,29.95,11,4,16,0.00
2013-1-23,-1.4,-7.4,-14.3,-9.6,-15.1,-20.6,85,69,55,30.36,30.25,11,2,14,0.00
2013-1-24,6.9,-2.7,-10.1,-5.7,-10.4,-13.7,85,70,52,30.53,30.27,15,4,20,0.00
2013-1-25,10.8,7.0,-2.6,5.2,-1.1,-7.4,87,69,57,30.54,30.20,8,1,10,0.00
2013-1-26,14.7,7.4,-2.9,9.1,1.4,-6.0,88,77,58,30.45,30.20,9,1,10,0.01
2013-1-27,17.9,10.4,-0.7,8.2,2.6,-3.5,89,72,45,30.64,30.45,6,1,11,0.00
2013-1-28,28.5,22.5,17.2,27.3,18.2,8.3,96,84,60,30.52,30.00,10,1,12,0.00
2013-1-29,47.2,24.3,15.6,45.9,22.1,14.1,97,91,84,30.20,29.84,10,2,16,0.06
2013-1-30,63.3,56.7,47.2,52.7,49.5,45.8,95,77,60,29.84,29.19,24,10,37,0.11
2013-1-31,55.1,34.5,18.6,52.1,25.7,7.9,92,71,52,29.67,28.91,30,14,43,0.46
2013-2-1,18.5,11.9,7.0,11.9,4.8,0.5,87,73,58,30.25,29.68,14,5,25,0.00
2013-2-2,18.2,13.4,5.7,16.3,9.9,0.0,92,86,74,30.28,30.06,13,1,18,0.00
2013-2-3,20.9,12.3,2.9,15.1,9.1,0.8,94,87,76,30.07,29.85,8,1,10,0.00
2013-2-4,18.1,10.2,-6.3,11.7,2.7,-10.2,93,73,41,30.03,29.87,18,3,23,0.00
2013-2-5,22.6,6.7,-13.4,9.0,-2.8,-17.0,89,67,42,30.09,29.92,8,1,9,0.00
2013-2-6,24.8,16.3,2.5,23.0,7.6,-3.9,93,69,42,30.49,29.90,18,4,20,0.01
2013-2-7,12.4,5.1,0.2,1.0,-2.7,-7.0,85,70,53,30.64,30.41,13,4,16,0.00
2013-2-8,13.9,8.2,4.2,12.0,5.9,0.1,93,90,78,30.41,30.05,14,7,19,0.00
2013-2-9,16.0,8.9,-8.1,8.4,3.5,-11.6,89,79,59,30.48,30.15,16,3,19,0.00
2013-2-10,29.8,9.3,-13.9,9.6,-1.4,-17.6,89,65,33,30.53,30.17,6,1,7,0.05
2013-2-11,42.6,26.5,14.0,36.7,20.9,7.4,95,79,70,30.17,29.63,20,5,27,0.10
2013-2-12,35.5,33.0,29.5,32.3,28.7,23.2,96,84,69,29.94,29.66,18,8,24,0.01
2013-2-13,33.9,30.4,24.2,27.1,24.8,20.7,89,80,68,29.93,29.82,10,3,15,0.00
2013-2-14,36.2,31.3,26.1,30.7,24.2,21.7,94,76,58,29.98,29.85,9,2,12,0.01
2013-2-15,37.7,33.3,25.0,33.9,26.4,17.8,95,76,61,30.06,29.82,26,9,38,0.04
2013-2-16,25.9,15.7,2.1,20.0,6.9,-2.1,83,68,49,30.16,30.05,8,1,11,0.00
2013-2-17,11.5,5.5,-2.6,1.0,-1.2,-5.8,92,74,60,30.14,29.94,15,5,20,0.00
2013-2-18,19.8,9.1,-1.0,4.9,-0.3,-5.3,82,66,48,30.33,30.13,11,4,16,0.00
2013-2-19,35.6,27.1,13.7,34.1,19.5,4.1,96,73,56,30.14,29.65,18,4,30,0.27
2013-2-20,29.6,23.9,11.0,23.7,17.8,8.1,94,78,64,30.00,29.71,19,9,26,0.00
2013-2-21,20.2,12.7,5.0,16.9,7.4,-0.7,89,79,72,30.49,30.00,16,6,18,0.01
2013-2-22,36.0,27.6,19.6,25.2,21.5,16.7,90,78,62,30.50,30.19,11,2,14,0.00
2013-2-23,38.6,34.4,30.7,35.1,31.4,24.9,97,89,75,30.19,29.92,9,1,10,0.11
2013-2-24,35.5,33.1,31.2,33.6,29.3,25.1,97,86,66,30.05,29.89,10,4,13,0.01
2013-2-25,38.5,33.4,30.8,33.4,31.0,28.7,96,91,73,30.31,30.05,6,0,7,0.01
2013-2-26,44.9,34.8,24.1,30.5,28.0,22.9,96,77,48,30.36,30.08,8,2,14,0.06
2013-2-27,34.1,33.0,32.5,33.0,31.3,29.5,97,93,85,30.09,29.65,12,4,22,0.28
2013-2-28,37.2,34.3,32.1,33.9,32.6,31.3,97,94,86,29.73,29.59,9,1,12,0.45
2013-3-1,33.2,29.5,25.2,32.2,26.4,22.8,97,88,80,29.94,29.74,15,5,16,0.03
2013-3-2,25.2,21.3,18.6,23.0,17.3,15.2,92,84,75,29.97,29.91,9,4,12,0.00
2013-3-3,25.3,21.1,16.6,19.1,16.4,14.4,92,82,68,29.92,29.84,13,4,13,0.01
2013-3-4,28.3,24.1,18.1,21.1,18.3,12.9,86,79,64,30.05,29.91,12,4,12,0.00
2013-3-5,35.2,27.0,22.0,25.8,21.1,17.8,91,78,65,30.18,30.05,9,2,9,0.00
2013-3-6,42.7,33.8,25.0,31.4,28.9,23.4,96,83,60,30.26,30.16,17,5,20,0.00
2013-3-7,33.7,31.0,27.6,28.8,25.4,22.1,94,80,69,30.34,30.24,16,5,17,0.00
2013-3-8,37.9,30.9,21.4,24.8,22.6,18.8,89,72,55,30.44,30.31,10,3,14,0.01
2013-3-9,45.0,30.3,15.0,25.3,20.8,13.4,95,71,42,30.47,30.36,8,1,10,0.00
2013-3-10,55.3,42.5,24.1,28.2,22.9,19.5,90,52,24,30.36,30.07,12,4,17,0.01
2013-3-11,56.0,51.1,44.5,41.1,29.0,25.9,73,43,34,30.12,29.81,16,4,27,0.00
2013-3-12,50.4,41.7,35.6,44.8,38.7,32.0,96,89,73,29.91,29.78,21,6,28,0.18
2013-3-13,38.7,34.6,30.5,32.7,29.6,24.0,95,82,59,29.93,29.83,15,5,20,0.02
2013-3-14,30.5,20.2,13.0,25.6,12.8,4.3,92,73,62,30.05,29.84,14,6,21,0.00
2013-3-15,35.4,23.9,12.7,30.6,17.1,7.4,96,75,60,30.07,29.64,15,5,22,0.00
2013-3-16,23.6,17.1,9.3,17.2,8.6,4.9,85,69,55,30.03,29.91,10,2,15,0.00
2013-3-17,24.7,17.0,8.3,10.0,6.1,1.6,87,64,37,30.43,30.02,12,3,18,0.00
2013-3-18,33.7,21.7,5.4,23.3,8.6,1.6,86,59,33,30.49,30.01,10,3,16,0.00
2013-3-19,37.8,31.6,26.8,33.2,28.8,23.4,96,89,72,30.00,29.75,17,4,23,0.22
2013-3-20,33.7,27.1,20.3,27.0,21.6,17.7,91,80,63,29.82,29.74,22,6,27,0.01
2013-3-21,32.1,26.3,19.1,22.8,18.3,14.5,87,72,49,29.80,29.73,22,7,23,0.00
2013-3-22,30.5,26.0,21.6,25.0,20.9,15.2,95,81,62,29.87,29.73,11,4,15,0.01
2013-3-23,37.2,31.9,25.1,25.6,22.4,18.3,93,69,48,29.97,29.85,19,6,26,0.00
2013-3-24,37.7,32.7,25.7,25.9,24.4,22.4,89,71,57,30.01,29.89,12,3,14,0.00
2013-3-25,41.2,32.4,23.6,28.9,25.4,21.2,92,76,57,29.89,29.70,14,3,22,0.00
2013-3-26,45.3,37.6,29.9,28.7,25.3,20.9,86,63,42,29.91,29.76,11,3,15,0.01
2013-3-27,44.3,38.6,33.9,31.9,29.3,27.1,85,70,55,30.04,29.90,11,3,17,0.00
2013-3-28,47.5,39.4,31.9,39.0,32.7,26.2,88,77,61,30.17,30.04,9,2,13,0.00
2013-3-29,44.1,39.3,34.7,35.6,32.5,29.4,90,77,58,30.20,30.15,13,3,13,0.01
2013-3-30,50.5,38.5,25.0,30.6,24.6,18.0,96,62,28,30.24,30.12,11,2,17,0.00
2013-3-31,55.7,41.3,30.8,39.9,27.4,21.0,95,61,31,30.13,29.71,20,4,24,0.16
2013-4-1,42.2,36.8,26.7,40.2,28.1,12.0,96,72,47,29.91,29.59,24,9,32,0.05
2013-4-2,32.4,27.0,22.2,19.3,13.3,7.9,85,57,42,30.04,29.90,21,9,29,0.00
2013-4-3,38.0,29.9,22.7,18.9,13.7,9.1,67,52,32,30.34,30.04,19,7,30,0.00
2013-4-4,48.1,36.2,24.4,27.5,20.6,15.2,80,56,27,30.35,29.95,21,6,30,0.00
2013-4-5,41.1,36.9,28.8,34.0,25.9,16.2,94,66,46,30.14,29.90,14,5,20,0.02
2013-4-6,40.5,34.6,20.5,19.3,12.6,7.5,71,41,27,30.40,30.22,10,2,17,0.00
2013-4-7,61.9,49.7,33.4,43.8,29.5,14.0,71,47,31,30.21,29.73,28,9,38,0.01
2013-4-8,54.9,44.6,38.9,38.3,33.6,30.5,91,66,43,30.23,29.90,10,3,20,0.03
2013-4-9,48.1,43.2,37.2,43.3,40.1,36.2,97,89,75,30.14,29.81,15,4,17,0.24
2013-4-10,47.1,44.3,38.4,43.6,38.8,30.3,97,81,71,30.12,30.00,7,1,11,0.07
2013-4-11,38.5,34.1,30.9,29.8,21.0,17.2,75,59,48,30.27,30.07,11,4,15,0.00
2013-4-12,41.8,33.7,29.6,40.0,29.4,15.1,97,86,44,30.23,29.74,13,4,20,0.33
2013-4-13,44.9,41.2,37.9,39.3,36.2,32.8,95,83,70,29.95,29.80,19,8,24,0.00
2013-4-14,44.2,38.7,31.3,35.6,32.2,27.9,96,79,54,30.29,29.95,16,5,18,0.07
2013-4-15,64.4,47.5,27.9,40.3,33.9,26.7,96,63,37,30.37,30.14,14,2,19,0.00
2013-4-16,60.3,55.4,43.9,55.2,46.5,38.6,95,74,48,30.23,29.97,26,9,35,0.19
2013-4-17,53.3,43.7,32.8,38.2,32.5,26.8,95,67,36,30.43,30.23,14,2,19,0.00
2013-4-18,71.5,53.7,37.8,51.9,40.1,29.3,88,62,41,30.39,29.79,24,6,33,0.01
2013-4-19,75.2,61.8,42.3,57.7,50.5,34.4,93,68,47,29.81,29.42,32,12,36,0.15
2013-4-20,43.9,38.9,29.3,35.0,28.3,19.5,90,66,51,30.43,29.75,25,11,40,0.00
2013-4-21,45.3,34.5,24.2,23.0,18.3,14.0,78,53,31,30.74,30.43,12,2,14,0.00
2013-4-22,60.8,45.5,25.8,26.0,20.2,13.6,81,42,16,30.73,30.48,17,3,18,0.00
2013-4-23,64.8,51.2,37.3,39.2,26.6,15.1,66,42,15,30.49,30.10,13,3,15,0.00
2013-4-24,71.8,57.0,43.0,54.4,42.8,38.1,91,61,33,30.10,29.61,25,7,37,0.04
2013-4-25,52.4,43.2,36.8,40.3,31.9,25.1,95,67,35,30.35,29.82,21,6,37,0.05
2013-4-26,52.4,44.5,35.8,40.8,34.2,28.2,95,70,40,30.52,30.35,13,3,16,0.14
2013-4-27,58.1,44.8,31.4,41.9,34.6,29.0,92,70,45,30.53,30.34,10,2,12,0.00
2013-4-28,73.9,57.9,38.0,43.3,38.8,34.5,94,55,24,30.36,30.10,8,1,11,0.00
2013-4-29,61.5,58.3,53.2,47.0,44.2,38.5,69,60,44,30.18,30.12,18,5,20,0.00
2013-4-30,70.9,61.0,53.9,52.5,49.2,46.8,83,67,44,30.31,30.19,10,3,15,0.00
2013-5-1,79.1,64.9,50.9,49.6,45.1,38.8,88,54,24,30.46,30.31,11,2,14,0.00
2013-5-2,80.3,66.6,51.2,49.1,41.0,33.2,75,43,21,30.50,30.34,11,3,14,0.00
2013-5-3,77.7,64.3,56.4,48.6,40.3,36.4,75,43,26,30.44,30.31,8,2,10,0.00
2013-5-4,76.8,67.5,44.3,47.6,38.7,32.7,82,37,22,30.39,30.21,10,2,12,0.01
2013-5-5,79.1,63.6,45.1,47.7,41.9,33.5,89,52,19,30.29,30.13,10,2,13,0.00
2013-5-6,77.8,63.6,50.4,44.5,37.5,29.5,63,40,18,30.25,30.07,12,2,14,0.00
2013-5-7,80.0,63.5,44.4,52.1,43.6,33.1,87,54,19,30.19,30.07,9,2,12,0.00
2013-5-8,80.0,64.1,48.8,60.4,51.7,41.6,95,69,27,30.17,30.03,11,1,16,0.24
2013-5-9,73.3,63.0,50.8,59.2,53.7,49.7,96,74,44,30.03,29.91,9,2,12,0.00
2013-5-10,69.3,62.3,54.1,58.4,55.2,49.7,95,78,64,30.06,29.80,9,2,15,0.05
2013-5-11,62.1,55.7,47.9,59.2,51.9,44.8,95,87,77,29.80,29.68,17,5,24,0.30
2013-5-12,50.7,47.8,36.9,46.2,38.6,28.7,90,72,44,29.82,29.70,23,8,35,0.07
2013-5-13,48.4,44.6,37.2,38.3,33.4,29.2,81,65,53,30.11,29.90,14,7,31,0.01
2013-5-14,56.4,46.4,32.2,34.9,30.7,28.1,91,57,35,30.19,30.07,10,2,13,0.00
2013-5-15,67.7,53.5,34.2,52.5,40.3,28.3,79,62,37,30.08,29.56,12,3,22,0.00
2013-5-16,69.6,57.5,43.3,45.8,40.6,32.4,80,56,26,30.04,29.69,20,5,25,0.00
2013-5-17,67.4,53.1,36.6,45.5,39.3,28.5,95,65,25,30.28,30.04,9,2,15,0.00
2013-5-18,72.6,58.0,39.6,45.5,40.6,33.6,94,57,27,30.36,30.24,7,1,12,0.00
2013-5-19,66.2,57.9,45.3,56.4,50.5,40.5,91,77,62,30.29,30.07,8,2,12,0.02
2013-5-20,72.4,65.3,59.4,61.0,58.4,55.3,92,79,64,30.12,29.99,7,1,12,0.02
2013-5-21,65.8,61.4,56.8,61.7,57.9,55.2,96,89,73,30.04,29.83,19,3,43,0.78
2013-5-22,80.5,67.2,56.3,68.0,61.7,55.2,96,84,57,29.89,29.65,16,2,30,0.58
2013-5-23,74.1,65.3,47.5,66.1,59.3,45.3,95,82,54,29.90,29.73,17,4,19,0.11
2013-5-24,49.3,44.9,40.5,45.5,41.7,36.8,96,89,64,30.17,29.90,14,3,14,0.32
2013-5-25,53.7,47.4,44.2,42.6,38.2,35.7,93,71,51,30.20,30.13,12,3,18,0.05
2013-5-26,63.2,50.8,43.4,43.6,39.2,29.4,95,68,28,30.16,30.08,12,3,19,0.09
2013-5-27,68.5,54.5,37.3,41.7,36.3,25.1,93,56,21,30.28,30.17,9,2,15,0.00
2013-5-28,75.2,60.6,40.0,53.0,41.6,32.3,90,54,22,30.26,30.06,8,1,11,0.00
2013-5-29,74.9,66.2,59.6,64.6,59.2,48.9,93,79,62,30.07,29.92,15,3,21,0.06
2013-5-30,82.9,71.4,61.5,66.0,62.3,59.5,94,75,47,30.15,30.03,13,3,18,0.00
2013-5-31,87.4,81.1,68.0,65.0,61.3,57.8,85,52,40,30.10,29.96,18,4,18,0.08
2013-6-1,85.0,75.4,69.4,67.8,63.4,60.1,92,67,49,29.99,29.78,13,4,13,0.30
2013-6-2,75.1,71.2,64.0,67.5,61.2,56.5,95,71,55,29.82,29.71,16,6,24,1.42
2013-6-3,63.6,57.3,51.3,58.2,48.1,42.7,89,72,51,29.98,29.82,12,5,18,0.00
2013-6-4,66.7,56.2,45.4,44.7,42.0,37.5,88,61,36,30.20,29.98,11,3,18,0.00
2013-6-5,64.6,55.0,41.2,47.2,42.3,36.0,96,66,35,30.31,30.20,6,1,10,0.00
2013-6-6,56.9,54.1,51.2,52.7,49.1,44.2,96,84,69,30.23,30.06,7,2,10,0.54
2013-6-7,60.1,56.7,53.2,58.6,55.3,52.1,96,95,93,30.06,29.91,6,2,9,0.51
2013-6-8,62.1,57.7,54.2,56.7,55.0,53.2,96,91,78,30.10,29.87,5,1,8,0.01
2013-6-9,75.8,64.8,56.7,57.8,55.2,52.0,91,73,45,30.24,30.09,8,3,12,0.01
2013-6-10,77.3,64.6,53.1,59.7,55.1,51.8,96,75,44,30.25,29.91,8,1,13,0.29
2013-6-11,61.0,58.5,55.3,59.6,57.3,54.2,96,96,95,29.91,29.67,8,2,12,1.38
2013-6-12,73.6,64.4,55.2,55.6,53.7,50.1,96,70,47,29.95,29.81,8,2,13,0.01
2013-6-13,68.5,60.4,52.3,60.2,56.0,50.5,96,86,66,29.89,29.72,6,1,9,0.02
2013-6-14,74.3,60.7,49.1,57.0,50.0,42.0,96,72,32,29.97,29.81,8,1,16,0.01
2013-6-15,73.2,60.8,45.4,50.1,46.4,42.0,95,63,38,30.07,29.95,10,3,17,0.00
2013-6-16,64.7,59.9,54.4,61.6,54.3,45.3,96,83,58,29.97,29.74,6,1,9,0.62
2013-6-17,68.3,61.2,52.8,59.5,55.8,48.7,96,83,62,30.04,29.82,8,2,12,0.00
2013-6-18,69.6,57.8,46.3,54.3,47.5,42.1,96,72,39,30.11,30.01,8,1,11,0.00
2013-6-19,68.0,55.7,40.6,49.5,42.4,37.8,96,65,34,30.25,30.11,6,1,9,0.00
2013-6-20,73.0,65.0,44.8,49.9,46.0,41.8,95,53,33,30.33,30.24,7,2,11,0.00
2013-6-21,78.9,66.9,57.5,56.6,49.1,42.7,82,54,38,30.34,30.23,8,2,11,0.00
2013-6-22,76.0,68.2,60.8,66.3,61.2,55.3,94,79,62,30.25,30.09,6,1,8,0.04
2013-6-23,82.1,71.9,61.6,72.6,66.7,60.3,96,85,66,30.14,30.00,6,2,12,0.14
2013-6-24,84.4,77.0,69.9,70.6,66.8,63.5,85,71,57,30.05,29.91,11,3,14,0.00
2013-6-25,81.4,75.0,69.5,70.3,65.8,62.5,90,73,63,29.96,29.79,11,3,17,0.37
2013-6-26,80.2,73.7,66.5,68.4,66.5,64.4,94,79,64,29.84,29.80,7,2,13,0.35
2013-6-27,81.5,73.7,67.7,67.3,65.1,63.3,89,75,58,29.84,29.75,7,2,9,0.02
2013-6-28,68.6,60.2,56.7,64.1,58.2,55.5,96,93,85,29.74,29.57,10,2,13,0.66
2013-6-29,74.1,65.2,59.6,62.0,59.9,58.3,96,84,59,29.75,29.57,6,1,8,0.01
2013-6-30,77.7,68.2,61.7,62.1,59.9,58.0,95,76,51,30.00,29.75,7,1,10,0.00
2013-7-1,71.6,65.1,58.7,61.7,58.0,51.7,96,79,59,30.16,30.00,11,3,14,0.02
2013-7-2,76.3,64.9,57.0,67.1,59.7,52.1,94,84,66,30.17,30.12,7,3,14,0.04
2013-7-3,81.5,71.1,62.8,71.3,66.5,61.6,96,87,67,30.24,30.15,4,0,6,0.02
2013-7-4,82.1,74.4,66.7,74.8,69.0,65.3,96,84,62,30.23,30.12,11,2,17,0.18
2013-7-5,82.3,76.7,71.4,70.0,67.5,65.7,85,74,57,30.19,30.08,8,2,12,0.00
2013-7-6,82.5,74.2,69.9,69.2,66.0,59.7,90,77,50,30.16,30.07,11,3,11,0.00
2013-7-7,80.3,73.8,69.4,70.1,65.7,61.3,87,76,60,30.09,29.97,10,2,12,0.00
2013-7-8,78.7,70.5,65.8,68.7,66.3,64.5,96,87,63,30.11,29.98,5,1,8,0.78
2013-7-9,85.5,75.3,65.1,71.2,67.5,63.8,96,78,53,30.13,29.97,5,1,7,0.01
2013-7-10,81.4,75.9,70.5,72.1,69.1,63.9,92,80,66,29.96,29.73,14,4,22,0.35
2013-7-11,76.3,69.9,60.5,68.4,60.5,54.7,92,74,48,30.11,29.78,6,1,10,0.01
2013-7-12,76.5,65.5,54.9,60.3,57.2,53.6,96,77,50,30.25,30.11,6,1,10,0.00
2013-7-13,85.0,71.3,55.7,67.5,61.0,54.2,95,73,42,30.34,30.26,7,1,10,0.00
2013-7-14,85.6,77.4,70.4,69.6,67.7,65.2,92,73,54,30.38,30.28,5,1,7,0.00
2013-7-15,87.6,77.2,68.0,70.3,65.6,60.5,89,70,41,30.33,30.23,7,1,10,0.00
2013-7-16,89.6,78.4,66.3,73.2,67.2,64.2,93,71,44,30.31,30.22,6,1,8,0.00
2013-7-17,89.2,79.2,72.1,72.5,68.6,64.7,90,71,54,30.25,30.05,12,3,16,0.00
2013-7-18,87.0,74.7,68.6,73.2,69.7,66.4,95,86,55,30.11,29.96,8,1,19,0.85
2013-7-19,89.0,78.5,68.9,73.1,69.9,66.6,95,77,49,29.97,29.68,20,5,32,0.39
2013-7-20,79.3,71.7,65.5,70.9,66.1,55.0,95,84,43,29.92,29.71,11,4,15,0.32
2013-7-21,66.3,60.6,56.2,59.0,52.3,49.3,90,74,62,30.10,29.92,8,2,10,0.00
2013-7-22,79.0,64.2,49.3,60.0,54.1,48.0,96,73,40,30.10,29.85,5,0,8,0.00
2013-7-23,81.8,72.6,64.4,67.6,63.0,59.6,91,73,53,29.85,29.60,9,2,16,0.01
2013-7-24,70.8,59.7,52.3,62.6,49.2,44.6,93,69,53,30.12,29.64,7,2,12,0.00
2013-7-25,70.7,58.8,44.9,52.0,48.3,43.7,96,71,44,30.23,30.12,9,1,12,0.01
2013-7-26,76.4,60.6,45.6,57.3,50.9,44.4,96,74,44,30.21,30.08,7,1,10,0.00
2013-7-27,83.2,68.5,49.6,63.8,56.8,48.4,96,70,38,30.09,29.93,8,1,11,0.06
2013-7-28,75.8,68.6,64.4,67.2,64.3,59.2,93,86,69,30.02,29.92,9,1,13,0.37
2013-7-29,72.2,63.4,56.1,62.3,56.7,51.1,95,80,48,30.15,30.02,10,2,16,0.23
2013-7-30,74.0,65.3,55.6,59.6,57.1,54.2,95,77,51,30.21,30.15,8,2,12,0.00
2013-7-31,77.4,67.9,57.7,61.8,58.7,55.3,94,74,48,30.20,30.04,8,2,11,0.00
2013-8-1,75.3,68.0,63.7,67.2,61.4,56.7,93,80,63,30.04,29.80,18,2,18,0.55
2013-8-2,75.0,67.0,60.1,62.7,59.2,55.8,94,78,54,29.91,29.84,9,2,15,0.04
2013-8-3,71.5,64.6,58.3,60.7,57.5,53.8,95,79,58,29.93,29.83,8,2,12,0.40
2013-8-4,68.1,61.0,52.0,58.7,54.5,50.2,95,80,53,30.08,29.92,8,2,13,0.05
2013-8-5,72.3,58.9,46.9,55.7,49.4,45.2,96,75,38,30.16,30.07,8,1,9,0.01
2013-8-6,77.8,64.6,50.5,59.4,52.6,45.9,96,69,34,30.16,30.10,6,1,9,0.00
2013-8-7,77.7,69.4,59.4,63.3,58.6,53.8,87,69,53,30.12,29.94,16,4,22,0.00
2013-8-8,81.3,73.9,67.3,68.2,65.4,62.5,92,75,56,30.03,29.94,9,2,15,0.00
2013-8-9,77.4,70.9,66.6,69.3,66.7,62.1,95,87,65,29.98,29.84,5,1,9,0.25
2013-8-10,70.7,64.5,58.7,61.9,53.2,47.0,86,68,43,30.11,29.89,8,2,13,0.02
2013-8-11,73.6,64.7,54.8,57.1,54.2,49.4,94,71,45,30.16,30.06,9,2,12,0.02
2013-8-12,75.8,66.8,57.1,58.0,54.8,51.9,90,67,44,30.08,29.92,10,2,12,0.01
2013-8-13,73.1,65.0,56.6,63.4,59.8,52.2,93,84,66,29.92,29.74,9,2,11,0.29
2013-8-14,67.3,58.8,54.2,57.2,52.4,48.9,95,80,53,30.06,29.79,12,2,16,0.07
2013-8-15,71.5,62.4,51.2,55.3,51.9,48.5,92,70,46,30.15,30.06,10,3,19,0.00
2013-8-16,74.4,63.9,54.3,60.7,55.3,51.2,92,75,49,30.28,30.14,8,1,11,0.00
2013-8-17,76.3,63.8,50.8,59.9,54.7,49.6,96,76,45,30.38,30.28,5,0,9,0.01
2013-8-18,78.9,65.2,52.2,60.6,54.4,50.9,96,72,38,30.33,30.14,8,1,10,0.00
2013-8-19,79.7,68.7,59.4,61.3,58.1,55.9,91,71,45,30.15,30.04,8,3,12,0.00
2013-8-20,81.5,71.6,62.3,63.3,59.8,57.2,86,68,50,30.15,30.07,13,3,14,0.00
2013-8-21,82.5,73.5,64.8,66.8,62.3,58.4,82,69,53,30.19,30.04,10,3,15,0.00
2013-8-22,77.1,69.3,62.9,68.0,64.0,60.0,96,84,67,30.05,29.92,13,2,21,0.85
2013-8-23,71.0,61.5,52.7,61.4,54.5,50.7,96,80,49,30.28,30.01,8,1,10,0.00
2013-8-24,74.2,59.8,45.4,57.9,50.8,44.3,96,76,43,30.44,30.28,5,0,7,0.00
2013-8-25,75.4,63.7,50.8,58.8,53.4,49.5,96,72,43,30.43,30.15,7,1,11,0.02
2013-8-26,76.0,69.7,65.3,68.1,64.6,57.8,94,84,73,30.15,29.94,10,3,13,0.09
2013-8-27,76.8,70.0,67.0,70.1,67.1,65.2,96,91,77,29.99,29.92,4,0,6,0.00
2013-8-28,83.4,72.1,60.0,69.3,64.8,58.8,96,80,52,30.02,29.94,7,0,9,0.00
2013-8-29,76.9,68.7,62.9,66.9,64.1,61.1,96,86,65,30.13,30.01,9,1,9,0.01
2013-8-30,81.9,70.3,60.4,68.1,63.5,59.1,96,81,53,30.06,29.82,9,2,17,0.04
2013-8-31,74.1,69.0,65.6,68.5,66.2,63.9,95,91,77,29.90,29.80,4,0,7,0.09
2013-9-1,80.3,70.5,61.6,66.4,63.7,60.1,96,80,57,29.95,29.84,7,1,9,0.00
2013-9-2,77.8,69.0,64.8,69.7,65.5,62.2,95,89,69,29.85,29.71,7,1,10,0.72
2013-9-3,68.8,63.8,58.1,62.7,57.0,55.5,94,79,63,29.91,29.77,10,3,14,0.00
2013-9-4,68.8,61.3,56.1,59.0,56.5,53.3,95,85,66,30.01,29.91,10,2,12,0.02
2013-9-5,61.5,54.2,42.5,55.6,45.5,35.6,95,75,39,30.27,30.00,7,1,13,0.00
2013-9-6,66.5,53.5,39.0,49.2,43.0,37.8,96,71,40,30.34,30.12,9,3,14,0.00
2013-9-7,67.4,61.0,55.3,59.4,54.2,49.0,95,79,69,30.12,29.92,10,3,16,0.03
2013-9-8,61.5,55.9,43.3,58.8,46.5,37.3,95,73,42,30.19,29.90,10,2,15,0.01
2013-9-9,68.0,53.1,39.3,55.7,45.5,38.0,96,78,46,30.25,30.04,10,1,18,0.00
2013-9-10,78.5,69.5,54.2,72.0,64.6,50.8,95,85,74,30.07,29.96,10,2,10,0.91
2013-9-11,86.7,78.8,68.8,71.9,68.9,66.2,94,72,54,30.04,29.93,12,4,19,1.44
2013-9-12,72.2,68.9,62.3,68.5,66.3,60.4,96,92,82,29.96,29.72,9,2,14,2.38
2013-9-13,62.0,53.4,48.1,60.1,49.4,45.2,94,86,79,30.03,29.75,8,2,11,0.01
2013-9-14,60.7,51.9,44.4,46.1,43.5,39.7,91,74,46,30.15,30.02,10,2,12,0.00
2013-9-15,66.1,56.1,48.0,55.2,49.7,44.6,91,80,61,30.18,30.09,13,3,16,0.11
2013-9-16,54.3,48.9,38.1,52.8,43.4,36.5,96,83,54,30.44,30.09,8,2,15,0.16
2013-9-17,62.5,47.5,33.9,46.6,40.0,32.9,96,78,47,30.57,30.38,5,1,6,0.00
2013-9-18,69.9,54.2,38.3,50.4,44.6,37.2,96,73,44,30.38,30.18,8,1,9,0.00
2013-9-19,74.4,58.3,41.7,55.8,49.8,40.5,96,77,43,30.20,30.08,7,1,8,0.00
2013-9-20,80.2,65.4,48.7,58.7,53.7,47.3,96,69,37,30.11,29.86,10,2,14,0.00
2013-9-21,69.4,64.9,58.9,61.5,57.7,54.5,96,79,59,29.86,29.65,16,4,21,1.03
2013-9-22,59.1,51.2,43.1,57.8,46.8,40.0,96,85,61,30.05,29.63,13,3,16,0.23
2013-9-23,50.8,44.6,35.8,43.9,39.7,34.8,96,83,66,30.19,30.05,7,1,9,0.00
2013-9-24,62.5,47.7,34.6,47.0,41.0,33.6,96,80,47,30.19,30.02,10,2,13,0.00
2013-9-25,67.0,52.1,37.7,50.9,44.9,36.7,96,79,46,30.08,30.00,5,1,9,0.00
2013-9-26,64.3,52.3,41.3,49.1,45.8,40.3,97,81,53,30.25,30.07,11,2,14,0.00
2013-9-27,63.9,52.3,39.9,51.8,46.4,38.8,96,82,60,30.36,30.25,7,1,10,0.00
2013-9-28,72.5,56.2,41.7,55.0,49.0,40.7,96,80,50,30.43,30.27,6,0,6,0.00
2013-9-29,73.9,59.5,46.3,51.9,48.0,43.9,95,70,35,30.28,30.08,10,2,17,0.00
2013-9-30,76.0,61.0,46.8,55.3,50.8,44.9,95,72,42,30.12,30.01,6,0,9,0.00
2013-10-1,72.1,63.1,55.7,59.1,53.7,50.7,87,73,49,30.06,29.96,9,2,14,0.00
2013-10-2,76.4,67.9,54.2,61.4,53.6,44.1,89,63,32,30.07,29.93,13,4,18,0.00
2013-10-3,71.3,57.9,46.9,51.9,47.4,43.1,88,70,44,30.20,30.08,8,1,10,0.01
2013-10-4,59.4,53.3,43.9,54.1,48.8,42.6,96,85,69,30.17,30.11,7,1,9,0.01
2013-10-5,64.4,57.1,51.8,47.8,44.2,38.6,79,63,41,30.21,30.15,10,2,12,0.00
2013-10-6,67.7,54.0,49.4,61.8,48.1,38.1,96,81,64,30.19,29.87,13,3,21,0.80
2013-10-7,76.6,63.0,52.1,60.3,54.5,43.1,95,75,52,29.99,29.61,23,8,42,0.60
2013-10-8,59.5,49.3,39.0,43.3,39.9,36.6,93,72,44,30.43,30.00,9,1,18,0.00
2013-10-9,65.8,49.0,34.1,45.4,40.2,33.0,96,75,38,30.51,30.38,10,1,12,0.00
2013-10-10,68.6,50.2,36.3,47.3,41.4,35.2,96,76,34,30.39,30.24,3,0,5,0.00
2013-10-11,69.7,51.5,36.6,48.5,42.2,35.6,96,75,34,30.26,30.18,8,1,9,0.00
2013-10-12,71.1,49.8,36.1,50.5,43.6,35.1,97,82,44,30.34,30.22,8,1,10,0.00
2013-10-13,72.8,59.1,41.8,55.9,49.3,40.5,96,73,46,30.41,30.28,8,1,11,0.02
2013-10-14,64.2,57.2,46.5,56.4,53.4,44.9,95,87,68,30.36,30.29,8,2,11,0.15
2013-10-15,65.0,52.2,39.5,53.5,46.7,38.5,97,83,54,30.36,30.07,10,1,12,0.00
2013-10-16,66.1,61.5,51.9,56.3,50.7,43.2,94,69,48,30.07,29.82,15,5,20,0.24
2013-10-17,61.7,56.4,50.9,56.2,50.0,46.6,93,80,58,29.91,29.74,11,3,15,0.18
2013-10-18,57.5,51.0,47.8,50.0,46.7,40.7,96,86,54,29.95,29.72,12,2,12,0.04
2013-10-19,61.3,52.8,42.8,47.6,43.2,39.5,92,72,47,29.95,29.65,21,4,25,0.11
2013-10-20,55.2,48.0,41.6,46.0,39.0,34.7,92,72,47,30.05,29.67,19,6,25,0.05
2013-10-21,62.7,53.4,37.5,43.1,39.3,35.1,94,63,39,30.07,29.82,18,4,23,0.00
2013-10-22,60.3,48.1,38.4,48.0,37.5,28.7,92,68,43,29.84,29.74,20,6,29,0.14
2013-10-23,45.9,40.1,32.5,36.6,32.5,26.7,93,75,55,29.83,29.72,9,2,13,0.00
2013-10-24,43.5,37.1,30.2,36.4,31.5,26.4,93,81,66,29.99,29.77,15,3,18,0.03
2013-10-25,43.6,36.6,30.3,32.0,29.8,27.3,89,77,58,30.18,30.00,14,2,15,0.00
2013-10-26,40.7,39.5,36.4,37.7,35.4,33.5,95,85,80,30.09,29.82,14,8,15,0.33
2013-10-27,45.3,41.4,38.7,39.3,33.7,31.1,94,74,59,30.07,29.80,12,2,15,0.05
2013-10-28,45.0,39.5,25.5,38.7,29.2,20.2,88,68,42,30.48,30.02,20,4,24,0.00
2013-10-29,40.6,29.3,19.3,28.1,23.0,17.7,95,79,48,30.56,30.39,7,1,10,0.00
2013-10-30,42.4,36.9,30.1,38.5,33.1,24.7,96,86,70,30.39,30.23,8,1,10,0.08
2013-10-31,61.3,50.3,34.8,55.6,47.3,33.6,96,89,78,30.23,29.52,23,5,31,0.33
2013-11-1,64.0,57.9,51.3,58.5,50.5,43.4,91,77,58,29.69,29.20,29,12,43,0.52
2013-11-2,52.5,42.2,33.7,45.9,38.6,25.0,95,87,69,30.06,29.66,10,3,14,1.50
2013-11-3,37.4,30.8,21.8,25.0,20.9,16.5,91,68,43,30.61,30.06,14,3,16,0.00
2013-11-4,38.7,28.7,18.6,25.2,19.9,17.1,95,72,43,30.77,30.61,11,1,13,0.00
2013-11-5,54.6,42.5,27.9,35.6,28.4,20.5,80,58,42,30.63,30.41,13,3,19,0.00
2013-11-6,61.6,54.6,46.3,50.4,41.5,34.9,84,62,46,30.41,29.80,23,7,35,0.20
2013-11-7,55.4,43.7,33.3,52.8,38.0,27.6,93,80,68,29.99,29.75,16,5,26,2.60
2013-11-8,37.5,35.6,33.3,31.2,27.4,24.1,88,72,59,30.23,29.94,14,4,19,0.00
2013-11-9,41.2,35.0,26.2,35.8,28.3,22.0,90,77,50,30.27,29.85,8,2,11,0.20
2013-11-10,45.3,41.1,34.2,41.2,36.8,27.8,95,85,73,30.10,29.76,17,7,26,1.60
2013-11-11,41.6,34.6,24.3,37.7,29.7,19.7,96,83,69,30.19,29.89,16,5,22,3.10
2013-11-12,28.1,25.1,23.0,20.2,17.5,13.1,84,73,63,30.41,30.13,13,5,17,0.00
2013-11-13,35.7,26.7,18.2,29.5,18.8,10.6,83,72,57,30.44,30.04,14,5,25,0.00
2013-11-14,46.0,40.5,34.3,35.2,29.1,24.2,76,64,44,30.10,30.02,21,8,30,0.00
2013-11-15,50.8,45.2,41.9,32.2,27.2,22.6,61,49,43,30.19,30.06,17,5,23,0.00
2013-11-16,56.5,46.4,38.6,34.1,29.7,24.8,77,53,40,30.31,30.19,12,2,17,0.00
2013-11-17,61.6,54.5,42.2,53.1,46.3,31.8,86,74,59,30.20,29.48,19,6,30,0.80
2013-11-18,60.9,47.8,32.1,54.6,37.9,27.1,94,69,49,29.79,29.37,27,13,45,2.20
2013-11-19,33.4,29.5,22.4,28.5,19.7,16.6,88,67,60,30.52,29.80,16,6,29,0.00
2013-11-20,35.9,24.9,16.1,21.0,18.0,14.0,93,76,51,30.71,30.52,3,0,6,0.00
2013-11-21,43.8,32.0,16.2,30.8,22.3,14.4,95,70,39,30.64,30.36,12,1,19,0.00
2013-11-22,43.9,40.3,31.5,42.9,37.4,26.8,96,90,68,30.36,29.93,18,2,24,3.20
2013-11-23,32.5,26.8,15.6,27.7,21.5,9.9,95,80,70,30.16,29.88,17,6,33,0.00
2013-11-24,20.1,14.3,10.3,12.1,6.0,2.4,87,70,47,30.43,30.08,20,7,28,0.00
2013-11-25,32.8,21.3,7.7,21.2,12.5,3.1,85,69,51,30.46,30.13,17,5,23,0.00
2013-11-26,36.6,33.3,30.6,31.4,26.9,17.8,96,78,54,30.23,29.94,16,4,22,0.00
2013-11-27,32.9,30.4,20.5,32.2,29.0,16.4,97,94,83,29.95,29.56,0,0,0,0.10
2013-11-28,23.3,16.3,4.8,16.9,11.5,2.5,91,81,65,30.52,29.79,10,1,16,0.00
2013-11-29,20.3,7.3,-2.7,12.1,3.6,-5.3,91,85,68,30.84,30.52,5,0,7,0.00
2013-11-30,26.2,13.6,-2.7,21.8,9.9,-5.4,92,85,70,30.85,30.28,7,0,10,0.00
2013-12-1,36.6,32.4,21.8,32.1,28.9,19.9,97,87,76,30.29,30.08,11,2,14,1.60
2013-12-2,33.3,31.8,30.6,32.3,31.0,29.8,97,97,96,30.08,29.95,5,1,7,0.90
2013-12-3,35.5,32.5,24.4,33.4,31.1,23.2,97,95,88,30.11,29.96,5,0,5,1.70
2013-12-4,34.3,26.9,17.3,30.6,24.9,16.2,96,92,84,30.21,30.09,9,2,10,0.30
2013-12-5,55.3,42.9,30.1,49.3,38.6,28.5,97,86,72,30.09,29.76,15,5,22,0.70
2013-12-6,41.2,34.6,31.2,33.1,28.2,22.1,96,78,63,30.25,29.99,12,5,20,0.70
2013-12-7,31.3,27.7,24.3,23.2,17.3,14.1,72,64,58,30.57,30.24,10,2,16,0.00
2013-12-8,28.8,24.9,22.8,20.9,18.1,13.4,88,75,58,30.64,30.44,7,1,9,0.00
2013-12-9,38.5,31.4,25.3,34.8,26.3,18.5,96,82,67,30.44,29.82,22,6,28,1.10
2013-12-10,33.1,25.4,18.0,25.4,13.7,6.8,73,61,51,30.02,29.90,24,7,28,0.00
2013-12-11,25.3,19.5,9.8,17.5,11.7,1.9,91,72,54,30.31,30.02,20,5,27,0.00
2013-12-12,18.5,11.2,-0.9,14.8,4.6,-4.1,90,75,59,30.39,29.98,13,3,18,0.00
2013-12-13,19.2,9.7,-5.1,13.9,2.8,-9.0,88,73,54,30.57,29.97,14,4,19,0.00
2013-12-14,5.6,-0.4,-7.7,0.1,-4.8,-11.1,88,81,67,30.66,30.05,13,5,16,0.00
2013-12-15,16.0,10.6,3.0,13.7,7.8,0.1,91,88,84,30.04,29.69,14,2,15,0.00
2013-12-16,9.4,-3.0,-14.7,6.9,-8.3,-18.3,89,78,62,30.33,29.85,0,0,4,0.00
2013-12-17,7.3,-4.7,-23.3,3.9,-8.2,-27.5,88,84,80,30.31,30.02,0,0,5,0.00
2013-12-18,26.6,16.3,6.0,22.6,12.8,3.2,89,86,79,30.08,29.99,0,0,4,0.00
2013-12-19,35.1,31.1,24.8,28.7,25.0,20.5,94,79,65,30.12,29.94,12,3,18,0.40
2013-12-20,33.1,25.2,19.6,29.8,23.4,18.0,96,93,83,30.12,29.92,12,3,15,0.10
2013-12-21,27.3,23.8,20.2,26.3,22.7,18.9,96,95,95,30.04,29.86,0,0,7,0.00
2013-12-22,23.8,21.2,19.7,22.5,20.0,18.4,95,95,94,30.05,29.77,0,0,0,0.00
2013-12-23,24.5,22.1,14.5,23.3,20.7,12.1,96,95,90,30.32,30.02,0,0,0,0.00
2013-12-24,14.6,6.5,-1.9,12.3,3.3,-4.8,91,86,79,30.52,30.31,0,0,0,0.00
2013-12-25,7.0,0.5,-10.5,4.2,-2.5,-13.7,90,87,83,30.64,30.34,0,0,0,0.10
2013-12-26,27.0,11.4,6.4,25.4,9.3,4.0,94,91,90,30.34,30.13,0,0,0,0.00
2013-12-27,27.1,24.8,22.1,25.0,22.8,19.7,95,92,87,30.28,30.14,0,0,0,0.00
2013-12-28,36.2,34.1,23.1,33.5,31.2,20.8,92,89,84,30.14,30.00,12,3,14,4.20
2013-12-29,43.0,34.7,30.4,35.2,30.9,28.2,97,87,62,30.03,29.64,9,1,13,5.30
2013-12-30,37.8,7.8,-1.2,34.7,1.7,-5.7,95,76,60,30.32,29.64,15,4,20,0.30
2013-12-31,17.2,7.7,-0.4,12.6,3.9,-4.1,91,84,74,30.29,30.00,9,1,13,0.10
2014-1-1,11.6,1.4,-8.0,7.7,-4.1,-14.6,89,77,67,30.56,30.22,7,1,11,0.00
2014-1-2,-8.7,-11.8,-12.7,-14.9,-17.4,-20.1,81,75,65,30.55,30.20,16,7,20,0.00